www.pogodaiklimat.ru

Погода и климат >> Архив погоды >> Индия >> Harnai


ПОГОДА в Harnai

  • Прогноз погоды в Harnai
  • Монитор погоды в Harnai
  • Климат города

АРХИВ ПОГОДЫ в Harnai

Время (UTC), дата Ветер
(напр.,м/с)
 
Видим.   Явления Облачность Т
(С)
Тd
(С)
f
(%)
Тe
(С)
Тes
(С)
Комфортность P
(гПа)
Po
(гПа)
Тmin
(С)
Tmax
(С)
R
(мм)
R24
(мм)
S
(см)
03 13.07 З 2 4000 м дождь {морось} 10/6 600 м
[Frnb Ac As]
+27.4 0.0 17 +25 +26 комфорт 1005.0 1005.0 +25.5 18
09 13.07 З 2 4000 м слабый дождь {морось, туман} 10/5 300 м
[Frnb Ac As]
+26.6 -20.1 4 +23 +26 комфорт 1004.8 1005.0 26
12 13.07 З 3 4000 м слабый дождь {туман} 10/5 300 м
[Frnb Ac As]
+25.8 -20.1 4 +22 +22 комфорт 1003.8 1004.0 +29.4 43
03 14.07 З 2 4000 м {дождь, туман} 10/5 600 м
[Cu Sc Ac As]
+28.2 0.0 16 +26 +27 жарко 1004.3 1004.0 +25.6 44
06 14.07 З 2 4000 м {туман} 10/5 600 м
[Cu Sc Ac As]
+30.0 -20.1 3 +25 +29 комфорт 1004.7 1005.0
09 14.07 З 2 4000 м {туман} 10/5 600 м
[Cu Sc Ac As]
+29.4 -20.1 3 +25 +27 комфорт 1003.9 1004.0 3
12 14.07 З 3 4000 м {туман} 10/5 600 м
[Cu Sc Ac As]
+28.4 -20.1 3 +24 +24 комфорт 1003.3 1003.0 +30.6 3
03 15.07 З 5 4000 м морось {туман} 10/4 300 м
[Frnb Ac As]
+27.2 -20.1 3 +23 +24 комфорт 1003.0 1003.0 +25.6 10
06 15.07 З 5 4000 м {морось} 10/5 600 м
[Cu Sc Ac As]
+28.6 -20.1 3 +24 +26 комфорт 1003.8 1004.0 0.4
09 15.07 З 5 4000 м {туман} 10/5 600 м
[Cu Sc Ac As]
+29.2 -20.1 3 +25 +26 комфорт 1002.9 1003.0 0.4
12 15.07 З 5 4000 м в посл. час дождь {туман} 10/5 600 м
[Cu Sc Ac As]
+28.2 -20.1 3 +24 +24 комфорт 1002.3 1002.0 +29.5 1
03 16.07 З 6 4000 м мгла {туман} 10/5 600 м
[Cu Sc Ac As]
+28.0 0.0 16 +26 +26 жарко 1003.4 1003.0 +26.8 3
06 16.07 З 6 4000 м {туман} 10/5 600 м
[Cu Sc Ac As]
+28.6 -20.1 3 +24 +25 комфорт 1004.2 1004.0
12 16.07 З 6 4000 м {туман} 10/5 600 м
[Cu Sc Ac As]
+27.6 -20.1 3 +23 +23 комфорт 1002.8 1003.0 +29.4
03 17.07 З 3 4000 м мгла {дождь, морось} 10/5 600 м
[Cu Sc Ac As]
+28.0 0.0 16 +26 +26 жарко 1004.7 1005.0 +26.2 8
06 17.07 З 3 4000 м в посл. час дождь {морось} 10/5 600 м
[Cu Sc Ac As]
+28.0 -20.1 3 +24 +26 комфорт 1005.5 1006.0 7
09 17.07 З 3 4000 м {дождь} 10/5 600 м
[Cu Sc Ac As]
+28.6 -20.1 3 +24 +26 комфорт 1004.4 1004.0 2
12 17.07 З 2 4000 м {дождь} 10/5 600 м
[Cu Sc Ac As]
+27.3 -20.1 3 +23 +23 комфорт 1003.8 1004.0 +29.2 6
03 18.07 ЮЗ 2 4000 м мгла {дождь, туман} 10/5 600 м
[Frnb Ac As]
+27.8 0.0 16 +25 +26 комфорт 1005.8 1006.0 29
06 18.07 ЮЗ 2 4000 м мгла {морось, туман} 10/5 600 м
[Frnb Ac As]
+27.8 0.0 16 +25 +29 комфорт 1007.1 1007.0 2
09 18.07 ЮЗ 2 4000 м в посл. час дождь {морось} 10/5 600 м
[Frnb Ac As]
+26.6 -20.1 4 +23 +25 комфорт 1006.3 1006.0 4
12 18.07 З 2 4000 м в посл. час дождь {морось, туман} 10/5 600 м
[Cu Sc Ac As]
+28.0 -20.1 3 +24 +24 комфорт 1005.3 1005.0 +29.5 5
03 19.07 Ю 1 4000 м мгла {морось, туман} 10/6 600 м
[Cu Sc Ac As]
+26.6 0.0 18 +25 +26 комфорт 1006.9 1007.0 +25.8 10
06 19.07 Ю 2 4000 м слабый дождь {туман} 10/6 600 м
[Frnb Ac As]
+28.2 0.0 16 +26 +29 жарко 1006.9 1007.0 4
09 19.07 ЮЗ 1 4000 м слабая морось {туман} 10/5 600 м
[Cu Sc Ac As]
+28.6 -20.1 3 +24 +27 комфорт 1006.1 1006.0 5
12 19.07 З 2 4000 м в посл. час дождь {морось} 10/5 600 м
[Frnb Ac As]
+27.7 -20.1 3 +23 +24 комфорт 1005.2 1005.0 +29.2 15

 

Местоположение метеостанции Harnai (Maharashtra, Индия): широта 17.82 долгота 73.10 высота над уровнем моря 20 м.

В архиве по умолчанию представлена погода в Harnai за последнюю неделю. Архивные данные за месяц целиком и за предыдущие месяцы, начиная с января 2011 года, Вы можете получить, выбрав интересующий диапазон дат из раскрывающегося списка и нажав кнопку "Ввод!".


*Определитесь, кто Вы:
робот инопланетянин человек

Внимание! Время в таблицах - всемирное. Для получения местного времени необходимо прибавить поправку, которая в Harnai равна 5.5 ч.

Смотрите также архив погоды в соседних городах и на ближайших метеорологических станциях:

Погода в Mahabaleshwar (Maharashtra, Индия) (62 км)
Погода в Bhira (Maharashtra, Индия) (77 км)
Погода в Alibag (Maharashtra, Индия) (93 км)
Погода в Ratnagiri (Maharashtra, Индия) (97 км)
Погода в Satara (Maharashtra, Индия) (106 км)
Погода в Pune (Maharashtra, Индия) (112 км)
Погода в Mumbai Colaba (Maharashtra, Индия) (124 км)
Погода в Matheran (Maharashtra, Индия) (130 км)
Погода в Mumbai (Maharashtra, Индия) (147 км)
Погода в Kolhapur (Maharashtra, Индия) (173 км)

Пояснения к столбцам:

Ветер - указаны скорость ветра в м/с - средняя за 10 мин, порывы в срок и между сроками (в фигурных скобках) и направление, откуда дует ветер: С - северный, СВ - северо-восточный, В - восточный, ЮВ - юго-восточный, Ю - южный, ЮЗ - юго-западный, З - западный, СЗ - северо-западный.
Видимость - горизонтальная дальность видимости в метрах или километрах. При видимости от 1 до 10 км при отсутствии осадков обычно наблюдается дымка, при ухудшении видимости до 1 км и менее - туман. В сухую погоду видимость может ухудшаться дымом, пылью или мглою.
Явления - указаны атмосферные явления, наблюдавшиеся в срок или в последний час перед сроком; фигурными скобками обозначены явления, наблюдавшиеся между сроками (за 1-3 часа до срока); квадратными скобками обозначены град или гололедные отложения с указанием их диаметра в мм.
Облачность - указаны через наклонную черту общая и нижняя облачность в баллах и высота нижней границы облаков в метрах; квадратными скобками обозначены формы облаков: Ci - перистые, Cs - перисто-слоистые, Cc - перисто-кучевые, Ac - высококучевые, As - высокослоистые, Sc - слоисто-кучевые, Ns - слоисто-дождевые, Cu - кучевые, Cb - кучево-дождевые. Подробнее классификацию облаков см. в Атласе облаков (PDF).
T - Температура воздуха - температура, измеренная на высоте 2 м над землей.
Td - Температура точки росы - температура, при понижении до которой содержащийся в воздухе водяной пар достигнет насыщения.
f - Относительная влажность воздуха - влажноcть воздуха, измеренная на высоте 2 м над землей.
Te - Эффективная температура - температура, которую ощущает одетый по сезону человек в тени. Характеристика душности погоды. При расчете учитывается влияние влажности воздуха и скорости ветра на теплоощущения человека.
Tes - Эффективная температура на солнце - температура, которую ощущает человек, с поправкой на солнечный нагрев. Характеристика знойности погоды. Зависит от высоты солнца над горизонтом, облачности и скорости ветра. Ночью, в пасмурную погоду, а также при ветре 12 м/с и более поправка равна нулю.
P - Атмосферное давление - приведенное к уровню моря атмосферное давление.
Po - Атмосферное давление - измеренное на уровне метеостанции атмосферное давление.
Tmin - Минимальная температура - минимум температуры воздуха на высоте 2 м над землей.
Tmax - Максимальная температура - максимум температуры воздуха на высоте 2 м над землей.
R - Количество осадков - Количество выпавших осадков за период времени, мм. При наведении курсора мыши на число - период времени, за который выпало указанное количество осадков.
R24 - Количество осадков - Количество выпавших осадков за 24 часа, мм.
S - Снежный покров - Высота снежного покрова, см. При наведении курсора мыши на число - состояние снежного покрова и степень покрытия местности в баллах.